User: anonymous   Login
Location: Unspecified
(0.0000°N, 0.0000°E)
Time: 15:19:03
(UTC+00:00)
Language:

FORMOSAT 3F - Orbit

View from above orbital plane
View from above orbital plane
View from above satellite
View from above satellite

Ground track
Ground track

The orbit data is extracted from the following two-line orbital elements,

1 29052U 06011F   18232.09264370  .00000074  00000-0  45279-4 0  9995
2 29052  72.0337  87.0562 0038757  82.8989 277.6552 14.28787129645192
Epoch (UTC): 20 August 2018 02:13:24
Eccentricity: 0.0038757
inclination: 72.0337°
perigee height: 768 km
apogee height: 823 km
right ascension of ascending node: 87.0562°
argument of perigee: 82.8989°
revolutions per day: 14.28787129
mean anomaly at epoch: 277.6552°
orbit number at epoch: 64519

The dashed part of the orbit path shows where the satellite is in the earth's shadow,  

DLR